Regional Weather Roundup
Issued by NWS Jackson, KY

Home | Current Version | Previous Version | Text Only | Print | Product List | Glossary On
Versions: 1 2 3 4 5 6 7 8 9 10 11 12 13 14 15 16 17 18 19 20 21 22 23 24 25 26 27 28 29 30 31 32 33 34 35 36 37 38 39 40 41 42 43 44 45 46 47 48 49 50
979
ASUS43 KJKL 110110
RWRJKL

EAST KENTUCKY HOURLY WEATHER ROUNDUP
NATIONAL WEATHER SERVICE JACKSON KY
800 PM EST SUN DEC 10 2017

NOTE: "FAIR" INDICATES FEW OR NO CLOUDS BELOW 12,000 FEET WITH
NO SIGNIFICANT WEATHER AND/OR OBSTRUCTIONS TO VISIBILITY.

* THESE REPORTS ARE NOT UNDER NWS QUALITY CONTROL AND MAY NOT
  REPORT WEATHER SUCH AS PRECIPITATION AND FOG.

KYZ079-080-083-085-087-088-110-112-115-119-120-110200
...EASTERN KENTUCKY...

CITY           SKY/WX    TMP DP  RH WIND       PRES   REMARKS
JACKSON        CLEAR     34  15  46 SW6       30.06R WCI  29
LONDON         CLEAR     36  16  44 SW5       30.09R WCI  32
SOMERSET*      CLEAR     34  18  51 S6        30.12R WCI  29
MONTICELLO*    CLEAR     37  21  52 SW16      30.13R WCI  28
WILLIAMSBURG*  CLEAR     36  16  44 SW5       30.10R WCI  32
MIDDLESBORO*   CLEAR     37  21  52 S7        30.12R WCI  31
HARLAN APT*    CLEAR     34  19  55 CALM      30.09S
PIKE CO APT*     N/A     36  13  39 S6        30.04S WCI  31
BIG SANDY APT* CLEAR     36  15  41 SW5       30.06R WCI  32
MOREHEAD APT*  CLOUDY    34  16  47 SW7G15    30.08R WCI  28
$$

KYZ035-036-041-042-044-050-067-078-099-110200
...CENTRAL KENTUCKY...

CITY           SKY/WX    TMP DP  RH WIND       PRES   REMARKS
MT STERLING*   CLOUDY    32  19  59 W7        30.08R WCI  26
FLEMING/MASON* PTCLDY    30  19  64 SW8       30.06S WCI  23
DANVILLE*      CLEAR     34  19  55 SW8       30.09R WCI  27
LEXINGTON      CLEAR     31  19  61 S9        30.06R WCI  23
FRANKFORT      CLEAR     32  18  56 SW6       30.05R WCI  26
LOUISVILLE     CLEAR     39  20  46 S6        30.07R WCI  35
LEBANON*         N/A     32  19  59 S8        30.09R WCI  25
GLASGOW*       CLEAR     35  21  55 SW3       30.13R
BOWLING GREEN  CLEAR     41  22  46 SW7       30.13R
$$

KYZ091>093-OHZ055-061-077-WVZ005-015-034-035-042-110200
...SOUTHERN OHIO/WEST VIRGINIA...

CITY           SKY/WX    TMP DP  RH WIND       PRES   REMARKS
COVINGTON      PTCLDY    33  20  58 SW6       30.02R WCI  28
COLUMBUS       CLOUDY    32  22  66 SW9       30.01S WCI  24
DAYTON         CLOUDY    31  22  69 S8        30.00S WCI  23
WILMINGTON     CLOUDY    30  22  72 SW8       30.01R WCI  22
HUNTINGTON     PTCLDY    36  15  42 SW5       30.05R WCI  32
CHARLESTON     MOCLDY    37  16  42 S5        30.03R WCI  33
PINEVILLE*       N/A     30  25  81 MISG      30.10R
BECKLEY        MOCLDY    31  15  52 SW8       30.00R WCI  23
BLUEFIELD      CLOUDY    29  14  53 W9        30.01R WCI  20
LOGAN CO APT*  MOCLDY    36  14  41 VRB7      30.02R WCI  30
$$

VAZ002-007-008-TNZ017-027-036-066-071-110200
...SOUTHWEST VIRGINIA/EAST TENNESSEE...

CITY           SKY/WX    TMP DP  RH WIND       PRES   REMARKS
WISE*          CLEAR     32  19  59 SW14      30.05S WCI  22
JONESVILLE*      N/A     28  19  69 CALM      30.15R
ABINGDON*      CLEAR     32  19  58 W5        30.10R WCI  27
BRISTOL        CLEAR     32  19  58 SW3       30.13R
MORRISTOWN*    PTCLDY    36  19  51 SW6       30.13R WCI  31
SEVIERVILLE*   CLEAR     34  21  60 CALM      30.13F
KNOXVILLE      PTCLDY    37  24  59 SW15      30.13S WCI  28
LAFOLLETTE*    CLEAR     32  23  69 CALM      30.15R
OAK RIDGE      CLEAR     38  22  52 SW5       30.16R WCI  34
CROSSVILLE     CLEAR     34  17  50 VRB7      30.11S WCI  28
NASHVILLE      CLEAR     42  21  43 SW6       30.16R
$$

...KEY TO REMARKS...
VSB - VISIBILITY IN MILES
WCI - WIND CHILL INDEX
HX  - HEAT INDEX

$$




USA.gov is the U.S. government's official web portal to all federal, state and local government web resources and services.